Вернуться в каталог

IBEX

LostНаукаHEO
NORAD 33401·PAYLOAD·🇺🇸 United States

Запущен Oct 19, 2008 с Vandenberg Space Force Base

Loading…

Ближайшие Пролёты (ближайшие 24 часа)

TLE

УстаревшееSource: Space-Track

Эпоха: Jul 25, 2025, 23:19 UTC

1 33401U 08051A   25206.97184344 -.00002141  00000-0  00000-0 0  9999
2 33401  46.2961  10.9471 7278850  50.1397   2.4308  0.10949703  5381

Отслеживайте IBEX в реальном времени с AllMySat

Download on the App Store